Location: Gollag?dem
(16.8053°N, 80.8024°E)
Time: 10:10:51
(UTC+00:00)

ASTEX 1 - Pass Details

Date: 13 August 2020
Orbit: 721 x 743 km, 92.7° (Epoch: 18 September)

Event Time Altitude Azimuth Distance (km) Brightness Sun altitude
Rises 23:14:19 0° 9° (N) 3,129 7.1 -15.9°
Reaches altitude 10° 23:16:36 10° 12° (NNE) 2,209 6.3 -15.3°
Maximum altitude 23:21:28 71° 96° (E) 768 3.7 -14.2°
Drops below altitude 10° 23:26:21 10° 180° (S) 2,218 5.7 -13.2°
Sets 23:28:38 0° 182° (S) 3,141 6.5 -12.6°
